Weather Roundup
Issued by NWS

Home | Current Version | Previous Version | Graphics & Text | Print | Product List | Glossary Off
Versions: 1 2 3 4 5 6 7 8 9 10 11 12 13 14 15 16 17 18 19 20 21 22 23 24 25 26 27 28 29 30 31 32 33 34 35 36 37 38 39 40 41 42 43 44 45 46 47 48 49 50

937
NZUS93 KARX 212359
HRRWXR

CURRENT HOURLY OBSERVATIONS ACROSS
MUCH OF THE UPPER MISSISSIPPI VALLEY
NATIONAL WEATHER SERVICE LA CROSSE WI
700 PM CDT SAT OCT 21 2017


...SOUTHEAST MINNESOTA...


CITY           SKY/WX    TMP DP  RH WIND       PRES   REMARKS
ROCHESTER      CLOUDY    66  59  78 S14       29.76R
ROCHESTER/MAYO MOCLDY    67  59  75 SE14G20   29.75S
WINONA         CLOUDY    70  59  68 SE8       29.77S
AUSTIN         CLOUDY    66  59  77 S10G18    29.74S
ALBERT LEA     NOT AVBL
DODGE CENTER   CLOUDY    64  57  77 S17       29.74R
PRESTON        CLOUDY    67  58  72 S14       29.77F
OWATONNA       LGT RAIN  66  61  82 S16G24    29.72R
FARIBAULT      LGT RAIN  64  61  88 W13G23    29.73R
$$

...ELSEWHERE IN MINNESOTA...


CITY           SKY/WX    TMP DP  RH WIND       PRES   REMARKS
MINNEAPOLIS    LGT RAIN  68  62  81 S13G22    29.68R
INTNL FALLS    CLOUDY    62  58  86 S8        29.55R
DULUTH         CLOUDY    61  61 100 S14       29.67S
RED WING       CLOUDY    70  55  60 S14       29.71S
REDWOOD FALLS  CLOUDY    56  44  64 W13       29.75R
MANKATO        LGT RAIN  57  51  80 W12       29.76R
WORTHINGTON    CLOUDY    52  43  71 W12       29.82R
FAIRMONT       CLOUDY    56  48  74 NW9       29.78R
$$

...SOUTHWEST WISCONSIN...


CITY           SKY/WX    TMP DP  RH WIND       PRES   REMARKS
LA CROSSE      CLOUDY    71  62  73 S8        29.79S
PRAIRIE DU CHI CLOUDY    74  57  55 SE9       29.82R
BOSCOBEL       CLOUDY    76  59  55 S7        29.85R
LONE ROCK      MOCLDY    73  60  63 S8        29.86R
PLATTEVILLE    CLOUDY    73  60  65 S14       29.87S
FORT MC COY    CLOUDY    72  59  63 S8        29.83R
MAUSTON-NEW LI CLEAR     72  59  63 S7        29.84R
VIROQUA        CLOUDY    70  60  70 S7        29.85R
WIS DELLS      PTCLDY    70  55  59 S10       29.87S
$$

...ELSEWHERE IN WISCONSIN...


CITY           SKY/WX    TMP DP  RH WIND       PRES   REMARKS
MILWAUKEE      PTCLDY    68  57  68 S8        29.97R
MADISON        MOCLDY    72  57  59 S12       29.90S
GREEN BAY      CLEAR     64  57  78 SE12      29.91R
EAU CLAIRE     NOT AVBL
BLACK RVR FLS  CLOUDY    70  57  63 SE6       29.81S
MEDFORD        CLOUDY    63  56  80 CALM      29.83S
WAUSAU         CLOUDY    70  58  65 S9        29.83R
WIS RAPIDS     MOCLDY    71  59  65 S7        29.86R
MARSHFIELD     MOCLDY    69  57  65 S10       29.83R
RICE LAKE      CLOUDY    66  58  75 S12       29.76R
$$

...NORTHEAST IOWA...


CITY           SKY/WX    TMP DP  RH WIND       PRES   REMARKS
WATERLOO       CLOUDY    70  60  70 S10       29.77F
DUBUQUE        CLOUDY    72  60  66 S13       29.87R
DECORAH        CLOUDY    70  61  73 S10       29.79F
MASON CITY     CLOUDY    68  60  75 S14       29.75S
CHARLES CITY   CLOUDY    70  61  73 S10       29.76F
OELWEIN        CLOUDY    70  63  78 SE12      29.80F
$$

...ELSEWHERE IN IOWA...


CITY           SKY/WX    TMP DP  RH WIND       PRES   REMARKS
DES MOINES     CLOUDY    69  65  86 S6        29.76S THUNDER
IOWA CITY      CLOUDY    76  61  59 S12       29.86R
FORT DODGE     CLOUDY    55  52  88 NW10G17   29.79R
MARSHALLTOWN   TSTM      69  64  84 S13       29.76F
CEDAR RAPIDS   MOCLDY    74  61  63 S9        29.83R
$$

...NORTHERN ILLINOIS...


CITY           SKY/WX    TMP DP  RH WIND       PRES   REMARKS
CHICAGO-OHARE  MOCLDY    72  57  59 S18       30.00R
CHICAGO-MIDWAY MOCLDY    74  58  57 S13       30.02R
MOLINE         PTCLDY    74  60  61 S14       29.90R
ROCKFORD       MOCLDY    71  58  63 S15       29.97R
PEORIA         CLEAR     73  59  61 S16       29.97S
$$

NOTE: "FAIR" INDICATES FEW OR NO CLOUDS BELOW 12,000 FEET WITH NO
SIGNIFICANT WEATHER AND/OR OBSTRUCTIONS TO VISIBILITY. WIND
SPEEDS ARE IN MILES-PER-HOUR.




USA.gov is the U.S. government's official web portal to all federal, state and local government web resources and services.